Contact Us:
Email: info@sawbill.com
Phone: (218)663-7150
Fax: (218)663-7980
Mail: 4620 Sawbill Trail
Box 2129
Tofte, MN 55615


Powered by
Movable Type 3.15
 
Sawbill Weather History
Check out the 7 Day Weather Forecast for the Superior National Forest.
Date High
Temperature
Low
Temperature
Barometric
Pressure
Relative
Humidity 7AM
9 AM
Temperature
Moisture Snow
12/2/16 27 24 30.16 82% 25 0"
12/1/16 25 23 30.10 86% 24 0"
11/30/16 36 25 29.80 79% 25 Trace Trace
11/29/16 37 34 29.74 95% 34 .30" Trace
11/28/16 39 35 29.50 98% 36 1.25"
11/27/16 37 33 29.66 98% 35 0"
11/26/16 33 30 30.13 98% 33 0"
11/25/16 34 29 30.10 87% 29 Trace Trace
11/24/16 34 31 30.13 87% 32 .07" .5"
11/23/16 34 30 30.10 86% 30 .15" 1.5"
11/22/16 31 20 30.10 88% 30 .14" 1.75"
11/21/16 27 12 30.18 78% 20 0"
11/20/16 23 10 30.20 71% 16 0"
11/19/16 19 16 30.20 63% 19 Trace Trace
11/18/16 31 16 30.08 65% 16 1.07" 7.5"
11/17/16 42 31 29.91 87% 32 0.1" .5"
11/16/16 41 34 29.88 88% 35 .9"
11/15/16 42 38 29.92 93% 38 .70"
11/14/16 43 33 29.95 87% 34 0
11/13/16 57 32 29.90 69% 40 0
11/12/16 42 26 30.10 68% 341 0
11/11/16 39 26 30.08 51% 36 0
11/10/16 56 30 30.30 62% 30 0
11/9/16 56 34 29.90 57% 45 0
11/8/16 50 32 30.20 79% 34 0
11/7/16 58 41 30.20 69% 40 0
11/6/16 65 46 30.08 60% 48 0
11/5/16 62 35 30.17 84% 45 0
11/4/16 58 34 30.19 87% 38 0
11/3/16 42 34 30.19 96% 39 0
11/2/16 52 33 30.15 94% 41 .15"
11/1/16 45 32 30.80 83% 33 0
10/31/16 50 39 29.80 76% 44 0
10/30/16 41 32 30.00 93% 38 0
10/29/16 44 38 30.15 78% 40 Trace
10/28/16 46 40 29.98 96% 44 .16"
10/27/16 43 38 30.00 98% 40 .03"
10/26/16 40 37 30.17 95% 37 0
10/25/16 44 28 30.28 81% 37 0
10/24/16 45 28 30.24 75% 28 0
10/23/16 42 32 30.19 83% 32 .51"
10/22/16 53 36 30.01 84% 38 .03"
10/21/16 43 35 30.02 85% 38 0
10/20/16 41 33 30.16 85% 35 .06"
10/19/16 42 33 30.14 76% 34 Trace
10/18/16 52 42 29.97 68% 42 Trace
10/17/16 54 46 29.77 98% 49 .07"
10/16/16 56 39 29.80 98% 46 .29"
10/15/16 61 39 29.96 76% 39 .05"
10/14/16 54 40 29.83 98% 54 0
10/13/16 44 33 30.06 79% 40 .06"
10/12/16 58 34 30.10 57% 34 0
10/10/16 66 45 30.02 67% 54 0
10/9/16 45 31 30.12 82% 45 0
10/8/16 45 29 30.28 79% 29 0
10/7/16 44 36 29.92 85% 37 .05"
10/6/16 59 38 29.98 95% 38 .51"
10/5/16 64 42 30.10 65% 42 .18"
10/4/16 60 43 30.00 49% 43 Trace
10/3/16 63 38 30.02 94% 50 0
10/2/16 66 38 30.10 75% 38 0
10/1/16 66 46 30.12 84% 47 0
9/30/16 64 43 30.22 87% 46 0
9/29/16 58 40 30.36 93% 46 0
9/28/16 55 49 30.36 86% 49 0
9/27/16 50 45 30.06 95% 49 .48"
9/26/16 50 45 29.74 98% 45 .98"
9/25/16 63 49 29.76 95% 49 .49"
9/24/16 64 52 30.00 91% 57 Trace
9/23/16 62 42 30.16 90% 52 .04"
9/22/16 63 41 30.20 75% 42 0
9/21/16 60 46 30.12 87% 51 .08"
9/20/16 66 46 30.12 75% 46 0
9/19/16 67 48 30.04 57% 50 0
9/18/16 71 58 29.96 85% 55 .15"
9/17/16 64 55 29.92 96% 55 .52"
9/16/16 64 56 29.84 98% 57 1.24"
9/15/16 65 40 29.96 98% 59 .26"
9/14/16 59 39 30.15 77% 39 0
9/13/16 60 46 30.18 84% 46 .02"
9/12/16 70 53 30.04 83% 53 .11"
9/11/16 67 50 29.90 86% 54 0
9/10/16 63 50 30.01 87% 46 Trace
9/9/16 70 48 29.94 95% 53 .52"
9/8/16 67 48 29.90 84% 48 Trace
9/7/16 68 52 29.90 98% 50 .27"
9/7/16 68 57 29.84 98% 58 .49"
9/6/16 68 54 30.04 98% 58 Trace
9/5/16 68 61 29.96 98% 65 1"
9/4/16 72 53 29.92 93% 62 .27"
9/3/16 68 51 30.07 88% 53 0
9/2/16 69 50 30.12 81% 54 0
9/1/16 67 50 30.24 84% 50 0
8/31/16 69 48 30.22 77% 50 0
8/30/16 74 45 30.12 88% 48 0
8/29/16 76 58 30.10 82% 58 .02"
8/28/16 74 55 30.10 98% 62 .43"
8/27/16 66 52 30.12 89% 55 Trace
8/26/16 67 51 30.10 81% 52 Trace
8/25/16 68 54 30.06 84% 54 .16"
8/24/16 78 56 29.99 73% 56 0
8/23/16 77 58 29.94 84% 60 Trace
8/22/16 73 51 30.01 81% 58 Trace
8/21/16 64 48 30.00 89% 51 .16"
8/20/16 78 51 29.90 87% 51 .54"
8/19/16 78 58 29.90 72% 61 .02"
8/18/16 81 58 29.98 98% 58 0
8/17/16 79 58 30.00 76% 58 0
8/16/16 77 52 30.04 83% 58 0
8/15/16 77 52 30.06 84% 60 Trace
8/14/16 72 51 30.09 76% 52 0
8/13/16 71 56 30.01 93% 58 .03"
8/12/16 70 58 29.96 98% 59 .28"
8/11/16 67 56 30.00 96% 62 .3"
8/10/16 63 51 30.02 98% 61 .12"
8/9/16 81 56 30.08 74% 56 Trace
8/7/16 73 49 30.08 80% 60 0
8/6/16 71 51 30.08 70% 51 0
8/5/16 71 58 30.01 89% 59 Trace
8/4/16 79 52 29.87 83% 62 .03"
8/3/16 82 58 29.88 98% 65 .55"
8/2/16 77 58 30.06 77% 58 .22"
8/1/16 78 55 30.08 97% 63 .39"
7/31/16 76 54 30.06 71% 55 0
7/30/16 74 48 30.06 73% 54 0
7/29/16 80 48 30.04 88% 48 0
7/28/16 72 48 30.10 70% 48 0
7/27/16 71 54 30.04 75% 54 .03"
7/26/16 80 62 30.04 68% 63 .02"
7/25/16 77 62 30.04 87% 64 .04"
7/24/16 78 62 30.01 88% 77 0
7/23/16 77 61 29.86 88% 63 Trace
7/22/16 83 60 30.04 74% 61 0
7/21/16 82 60 30.00 79% 60 0
7/20/16 86 58 29.90 98% 67 .26"
7/19/16 77 47 30.08 76% 58 0
7/18/16 70 47 30.18 74% 47 0
7/17/16 73 56 30.04 94% 56 .42"
7/16/16 73 45 29.94 86% 57 0
7/15/16 65 45 30.04 79% 45 0
 


Home I Trip Planning I Rentals and Outfitting I Reservations I Campgrounds I Sawbill Store I Sawbill News I Contact

© 1997 - 2016, Sawbill Canoe Outfitters, Inc. I Privacy Policy